Weather History for KLWD - February, 2014

Change the Weather History Date:

Tuesday, February 4, 2014

  Actual Average Record
Temperature  
Mean Temperature 15 °F 26 °F  
Max Temperature 20 °F 35 °F 59 °F (2005)
Min Temperature 10 °F 16 °F -11 °F (1982)
Degree Days  
Heating Degree Days 50 39  
Month to date heating degree days 208 159  
Since 1 July heating degree days 4189 3851  
Cooling Degree Days 0 0  
Month to date cooling degree days 0 0  
Year to date cooling degree days 0 0  
Moisture  
Dew Point 11 °F    
Average Humidity 77    
Maximum Humidity 92    
Minimum Humidity 62    
Precipitation  
Precipitation 0.35 in 0.05 in 0.84 in (1971)
Month to date precipitation 0.59 0.18  
Sea Level Pressure  
Sea Level Pressure 30.22 in    
Wind  
Wind Speed 13 mph (NE)    
Max Wind Speed 25 mph    
Max Gust Speed 33 mph    
Visibility 3 miles    
Events Fog , Snow    
T = Trace of Precipitation, MM = Missing Value Source: NWS Daily Summary

Daily Weather History Graph

Daily Weather History Graph

Search for Another Location

Airport or City:

Trip Planner

Search our weather history database for the weather conditions in past years. The results will help you decide how hot, cold, wet, or windy it might be!

Date:

Astronomy

Feb. 04, 2014 Rise Set
Actual Time 7:22 AM CST 5:37 PM CST
Civil Twilight 6:53 AM CST 6:05 PM CST
Nautical Twilight 6:21 AM CST 6:38 PM CST
Astronomical Twilight 5:49 AM CST 7:10 PM CST
Moon 9:58 AM CST (2/4) 11:34 PM CST (2/4)
Length of Visible Light 11h 12m
Length of Day
10h 14m
Waxing Crescent, 29% of the Moon is Illuminated
Feb 4
Waxing Crescent
Feb 6
First Quarter
Feb 14
Full
Feb 22
Last Quarter
Mar 1
New

Hourly Weather History & Observations

Time (CST) Temp. Windchill Dew Point Humidity Pressure Visibility Wind Dir Wind Speed Gust Speed Precip Events Conditions
12:53 AM 19.9 °F 11.1 °F 9.0 °F 62% 30.32 in 10.0 mi ENE 6.9 mph - N/A   Overcast
1:53 AM 19.9 °F 13.4 °F 10.0 °F 65% 30.31 in 10.0 mi NE 4.6 mph - N/A   Overcast
2:53 AM 19.9 °F 11.1 °F 10.9 °F 68% 30.31 in 10.0 mi NE 6.9 mph - N/A   Overcast
3:53 AM 19.0 °F 8.2 °F 10.0 °F 68% 30.32 in 10.0 mi North 9.2 mph - N/A   Overcast
4:53 AM 19.0 °F 9.0 °F 10.9 °F 71% 30.34 in 10.0 mi ENE 8.1 mph - N/A   Overcast
5:53 AM 19.0 °F 11.1 °F 10.9 °F 71% 30.33 in 10.0 mi NE 5.8 mph - N/A   Overcast
6:53 AM 19.0 °F 10.0 °F 10.9 °F 71% 30.34 in 10.0 mi ENE 6.9 mph - N/A   Overcast
7:53 AM 19.0 °F 8.2 °F 10.0 °F 68% 30.33 in 10.0 mi NE 9.2 mph - N/A   Overcast
8:53 AM 19.0 °F 7.5 °F 10.0 °F 68% 30.30 in 10.0 mi ENE 10.4 mph - N/A   Overcast
9:53 AM 19.9 °F 8.6 °F 10.0 °F 65% 30.33 in 10.0 mi East 10.4 mph - N/A   Overcast
10:53 AM 19.9 °F 6.7 °F 10.9 °F 68% 30.31 in 4.0 mi ENE 13.8 mph 21.9 mph 0.00 in Snow Light Snow
11:00 AM 19.0 °F 7.5 °F 10.0 °F 68% 30.25 in 1.8 mi ENE 10.4 mph 21.9 mph 0.00 in Snow Light Snow
11:17 AM 19.0 °F 6.8 °F 12.9 °F 77% 30.22 in 0.8 mi ENE 11.5 mph - 0.01 in Snow Light Snow
11:42 AM 18.0 °F 3.6 °F 12.9 °F 81% 30.21 in 1.0 mi ENE 15.0 mph - 0.02 in Snow Light Snow
11:53 AM 18.0 °F 5.4 °F 12.9 °F 81% 30.28 in 1.5 mi ENE 11.5 mph - 0.02 in Snow Light Snow
12:29 PM 19.0 °F 8.2 °F 14.0 °F 81% 30.20 in 0.8 mi ENE 9.2 mph - 0.01 in Snow Light Snow
12:44 PM 18.0 °F 2.6 °F 14.0 °F 84% 30.18 in 0.5 mi NE 17.3 mph 24.2 mph 0.02 in Fog , Snow Light Snow
12:53 PM 18.0 °F 3.6 °F 12.9 °F 81% 30.24 in 0.5 mi ENE 15.0 mph - 0.02 in Snow Snow
1:27 PM 18.0 °F 2.6 °F 14.0 °F 84% 30.16 in 0.5 mi NE 17.3 mph - 0.03 in Fog , Snow Light Snow
1:53 PM 18.0 °F 3.1 °F 14.0 °F 84% 30.19 in 0.5 mi NE 16.1 mph - 0.04 in Fog , Snow Light Snow
2:08 PM 18.0 °F 4.2 °F 14.0 °F 84% 30.13 in 0.5 mi ENE 13.8 mph - 0.01 in Fog , Snow Light Snow
2:53 PM 19.0 °F 4.5 °F 14.0 °F 81% 30.20 in 0.8 mi NE 16.1 mph - 0.03 in Snow Light Snow
3:25 PM 19.0 °F 6.1 °F 15.1 °F 85% 30.14 in 0.5 mi NE 12.7 mph - 0.02 in Fog , Snow Light Snow
3:53 PM 18.0 °F 4.2 °F 15.1 °F 88% 30.20 in 0.2 mi NE 13.8 mph - 0.04 in Fog , Snow Snow
4:53 PM 17.1 °F 2.5 °F 14.0 °F 88% 30.19 in 0.2 mi NNE 15.0 mph - 0.06 in Fog , Snow Snow
5:01 PM 17.1 °F 3.0 °F 14.0 °F 88% 30.13 in 0.5 mi NNE 13.8 mph - 0.01 in Fog , Snow Snow
5:51 PM 17.6 °F 2.7 °F 12.2 °F 79% 30.12 in 1.0 mi NNE 16.1 mph - 0.04 in Snow Light Snow
5:53 PM 17.1 °F 1.5 °F 12.9 °F 84% 30.18 in 1.0 mi NNE 17.3 mph 25.3 mph 0.04 in Snow Light Snow
6:14 PM 17.1 °F 1.5 °F 12.9 °F 84% 30.12 in 1.2 mi NNE 17.3 mph 26.5 mph 0.01 in Snow Light Snow
6:26 PM 17.1 °F 0.6 °F 12.9 °F 84% 30.13 in 1.0 mi NNE 19.6 mph 28.8 mph 0.01 in Snow Light Snow
6:46 PM 17.1 °F 0.1 °F 12.0 °F 81% 30.12 in 1.2 mi NNE 20.7 mph 33.4 mph 0.02 in Snow Light Snow
6:53 PM 16.0 °F 0.6 °F 12.0 °F 84% 30.19 in 1.2 mi NNE 16.1 mph 27.6 mph 0.02 in Snow Light Snow
7:26 PM 16.0 °F -0.4 °F 12.0 °F 84% 30.14 in 2.0 mi NNE 18.4 mph 27.6 mph 0.01 in Snow Light Snow
7:37 PM 16.0 °F 0.1 °F 12.0 °F 84% 30.14 in 1.8 mi NNE 17.3 mph - 0.01 in Snow Light Snow
7:53 PM 16.0 °F -0.9 °F 12.0 °F 84% 30.21 in 1.2 mi NNE 19.6 mph - 0.01 in Snow Light Snow
8:18 PM 15.1 °F -0.1 °F 10.9 °F 84% 30.16 in 1.0 mi NNE 15.0 mph - 0.01 in Snow Light Snow
8:28 PM 15.1 °F -0.6 °F 12.0 °F 88% 30.16 in 0.8 mi NNE 16.1 mph - 0.01 in Snow Light Snow
8:53 PM 14.0 °F -2.5 °F 10.9 °F 88% 30.23 in 1.0 mi NNE 17.3 mph 27.6 mph 0.02 in Snow Light Snow
9:28 PM 14.0 °F -2.5 °F 10.0 °F 84% 30.18 in 0.8 mi North 17.3 mph 29.9 mph 0.02 in Snow Light Snow
9:38 PM 12.9 °F -5.3 °F 9.0 °F 84% 30.18 in 1.0 mi NNE 20.7 mph 28.8 mph 0.02 in Snow Light Snow
9:53 PM 12.9 °F -3.9 °F 9.0 °F 84% 30.25 in 1.2 mi NNE 17.3 mph 24.2 mph 0.02 in Snow Light Snow
10:53 PM 12.0 °F -6.5 °F 8.1 °F 84% 30.27 in 1.0 mi NNE 20.7 mph 27.6 mph 0.01 in Snow Light Snow
11:29 PM 10.9 °F -5.9 °F 7.0 °F 84% 30.20 in 0.8 mi North 16.1 mph - 0.01 in Snow Light Snow
11:36 PM 10.9 °F -7.5 °F 6.1 °F 81% 30.20 in 1.0 mi North 19.6 mph 32.2 mph 0.01 in Snow Light Snow
11:53 PM 10.0 °F -8.1 °F 5.0 °F 80% 30.27 in 1.5 mi North 18.4 mph 27.6 mph 0.02 in Snow Light Snow